Location: Clover
(42.5131°N, 114.6874°W)
Time: 14:19:07
(UTC+00:00)

ARIANE 6 FM1 Upper Stage - Pass Details

Date: 21 January 2026
Orbit: 522 x 608 km, 62.0° (Epoch: 17 February)

Event Time Altitude Azimuth Distance (km) Brightness Sun altitude
Rises 01:31:26 0° 168° (SSE) 2,717 6.2 -10.0°
Reaches altitude 10° 01:34:51 10° 138° (SE) 1,808 5.0 -10.6°
Maximum altitude 01:36:30 12° 114° (ESE) 1,659 4.6 -10.9°
Enters shadow 01:37:09 12° 104° (ESE) 1,679 4.6 -11.1°
